Location: Amberg
(48.0613°N, 10.6820°E)
Time: 05:29:33
(UTC+00:00)

Resurs 1-3 - Pass Details

Date: 18 November 2025
Orbit: 613 x 615 km, 97.7° (Epoch: 10 December)

Event Time Altitude Azimuth Distance (km) Brightness Sun altitude
Rises 16:56:14 0° 140° (SE) 2,875 6.7 -13.3°
Reaches altitude 10° 16:58:33 10° 131° (SE) 1,974 5.8 -13.7°
Maximum altitude 17:02:24 33° 68° (ENE) 1,045 4.2 -14.3°
Drops below altitude 10° 17:06:15 10° 4° (N) 1,986 6.0 -14.9°
Sets 17:08:36 0° 355° (N) 2,896 6.9 -15.3°
